| time (UTC) | temp F | wind direction | speed knots | gust knots | rain 1hr in | rain 24hr in | rain mn in | humidity % | barometer mb |
| 20260904163022 | 72 | 238 | 1.7 | 2.6 | 0.00 | 0.00 | 0.00 | 50 | 1003.9 |
| 20260904162022 | 72 | 229 | 1.7 | 3.5 | 0.00 | 0.00 | 0.00 | 49 | 1004.9 |
| 20260904161024 | 72 | 222 | 1.7 | 2.6 | 0.00 | 0.00 | 0.00 | 49 | 1004.9 |
| 20260904160024 | 72 | 230 | 1.7 | 2.6 | 0.00 | 0.00 | 0.00 | 49 | 1004.9 |
| 20260904155026 | 72 | 174 | 1.7 | 2.6 | 0.00 | 0.00 | 0.00 | 49 | 1004.9 |
| 20260904154022 | 72 | 258 | 0.9 | 1.7 | 0.00 | 0.00 | 0.00 | 48 | 1004.9 |
| 20260904153024 | 72 | 218 | 0.9 | 2.6 | 0.00 | 0.00 | 0.00 | 48 | 1004.9 |
| 20260904152035 | 72 | 200 | 1.7 | 2.6 | 0.00 | 0.00 | 0.00 | 48 | 1004.9 |
| 20260904151102 | 72 | 231 | 0.9 | 1.7 | 0.00 | 0.00 | 0.00 | 48 | 1005.6 |
| 20260904145022 | 73 | 205 | 1.7 | 2.6 | 0.00 | 0.00 | 0.00 | 48 | 1005.9 |
| 20260904144022 | 73 | 193 | 0.9 | 1.7 | 0.00 | 0.00 | 0.00 | 48 | 1005.9 |
| 20260904143039 | 73 | 216 | 1.7 | 1.7 | 0.00 | 0.00 | 0.00 | 47 | 1005.9 |
| 20260904142022 | 73 | 223 | 1.7 | 2.6 | 0.00 | 0.00 | 0.00 | 47 | 1005.9 |
| 20260904141025 | 73 | 219 | 1.7 | 3.5 | 0.00 | 0.00 | 0.00 | 47 | 1006.6 |
| 20260904140022 | 73 | 212 | 1.7 | 3.5 | 0.00 | 0.00 | 0.00 | 47 | 1007.0 |
| 20260904135022 | 73 | 212 | 2.6 | 3.5 | 0.00 | 0.00 | 0.00 | 47 | 1007.0 |
| 20260904134022 | 73 | 214 | 2.6 | 3.5 | 0.00 | 0.00 | 0.00 | 47 | 1007.0 |
| 20260904133015 | 73 | 215 | 2.6 | 3.5 | 0.00 | 0.00 | 0.00 | 48 | 1007.0 |
| 20260904132022 | 73 | 216 | 0.9 | 2.6 | 0.00 | 0.00 | 0.00 | 47 | 1008.0 |
| 20260904131042 | 73 | 224 | 2.6 | 2.6 | 0.00 | 0.00 | 0.00 | 48 | 1008.0 |
| 20260904130017 | 73 | 203 | 1.7 | 1.7 | 0.00 | 0.00 | 0.00 | 48 | 1008.0 |
| 20260904125102 | 73 | 181 | 1.7 | 1.7 | 0.00 | 0.00 | 0.00 | 48 | 1008.0 |
| 20260904124022 | 72 | 241 | 1.7 | 2.6 | 0.00 | 0.00 | 0.00 | 48 | 1008.0 |
| 20260904123022 | 72 | 222 | 1.7 | 2.6 | 0.00 | 0.00 | 0.00 | 48 | 1008.0 |
| 20260904122042 | 72 | 228 | 1.7 | 2.6 | 0.00 | 0.00 | 0.00 | 48 | 1008.0 |
| 20260904121015 | 72 | 228 | 1.7 | 1.7 | 0.00 | 0.00 | 0.00 | 49 | 1008.0 |
| 20260904120018 | 72 | 225 | 0.9 | 1.7 | 0.00 | 0.00 | 0.00 | 49 | 1008.0 |
| 20260904115022 | 72 | 214 | 2.6 | 3.5 | 0.00 | 0.00 | 0.00 | 49 | 1009.0 |
| 20260904114022 | 72 | 199 | 1.7 | 1.7 | 0.00 | 0.00 | 0.00 | 49 | 1009.0 |
| 20260904113018 | 72 | 211 | 1.7 | 2.6 | 0.00 | 0.00 | 0.00 | 50 | 1009.0 |
| 20260904112044 | 73 | 222 | 1.7 | 2.6 | 0.00 | 0.00 | 0.00 | 49 | 1009.0 |
| 20260904111022 | 72 | 230 | 2.6 | 3.5 | 0.00 | 0.00 | 0.00 | 50 | 1009.0 |
| 20260904110026 | 73 | 226 | 1.7 | 2.6 | 0.00 | 0.00 | 0.00 | 52 | 1009.0 |
| 20260904105025 | 72 | 200 | 1.7 | 2.6 | 0.00 | 0.00 | 0.00 | 53 | 1010.0 |
| 20260904104015 | 72 | 232 | 1.7 | 2.6 | 0.00 | 0.00 | 0.00 | 54 | 1010.0 |
| 20260904103022 | 71 | 245 | 0.9 | 0.9 | 0.00 | 0.00 | 0.00 | 55 | 1010.0 |
| 20260904102022 | 71 | 260 | 0.9 | 1.7 | 0.00 | 0.00 | 0.00 | 57 | 1010.0 |
| 20260904101022 | 71 | 230 | 2.6 | 5.2 | 0.00 | 0.00 | 0.00 | 57 | 1010.0 |
| 20260904100021 | 70 | 238 | 0.9 | 2.6 | 0.00 | 0.00 | 0.00 | 60 | 1010.0 |
| 20260904095022 | 70 | 217 | 1.7 | 3.5 | 0.00 | 0.00 | 0.00 | 60 | 1010.0 |
| 20260904094023 | 69 | 245 | 0.9 | 1.7 | 0.00 | 0.00 | 0.00 | 61 | 1010.0 |
| 20260904093023 | 70 | 225 | 1.7 | 2.6 | 0.00 | 0.00 | 0.00 | 61 | 1010.0 |
| 20260904092023 | 69 | 209 | 0.9 | 1.7 | 0.00 | 0.00 | 0.00 | 62 | 1010.0 |
| 20260904091020 | 69 | 312 | 1.7 | 5.2 | 0.00 | 0.00 | 0.00 | 63 | 1010.0 |
| 20260904090022 | 68 | 218 | 1.7 | 2.6 | 0.00 | 0.00 | 0.00 | 63 | 1010.0 |
| 20260904085015 | 68 | 228 | 1.7 | 1.7 | 0.00 | 0.00 | 0.00 | 64 | 1010.0 |
| 20260904084022 | 68 | 220 | 0.9 | 0.9 | 0.00 | 0.00 | 0.00 | 65 | 1010.0 |
| 20260904083022 | 68 | 220 | 1.7 | 2.6 | 0.00 | 0.00 | 0.00 | 66 | 1010.0 |
| 20260904082025 | 68 | 226 | 0.9 | 1.7 | 0.00 | 0.00 | 0.00 | 67 | 1010.0 |
| 20260904081022 | 68 | 210 | 0.9 | 1.7 | 0.00 | 0.00 | 0.00 | 67 | 1010.0 |
| 20260904080024 | 67 | 209 | 0.9 | 0.9 | 0.00 | 0.00 | 0.00 | 67 | 1010.0 |
| 20260904075022 | 67 | 239 | 0.9 | 1.7 | 0.00 | 0.00 | 0.00 | 67 | 1010.0 |
| 20260904074016 | 67 | 255 | 1.7 | 2.6 | 0.00 | 0.00 | 0.00 | 68 | 1010.0 |
| 20260904073022 | 67 | 219 | 0.9 | 0.9 | 0.00 | 0.00 | 0.00 | 68 | 1010.0 |
| 20260904072022 | 67 | 222 | 0.9 | 2.6 | 0.00 | 0.00 | 0.00 | 68 | 1010.0 |
| 20260904071102 | 67 | 208 | 0.9 | 1.7 | 0.00 | 0.00 | 0.00 | 69 | 1010.0 |
| 20260904070047 | 66 | 223 | 1.7 | 2.6 | 0.00 | 0.00 | 0.00 | 69 | 1010.0 |
| 20260904065023 | 66 | 217 | 0.9 | 1.7 | 0.00 | 0.00 | 0.00 | 70 | 1010.0 |
| 20260904064022 | 66 | 208 | 0.9 | 1.7 | 0.00 | 0.00 | 0.00 | 70 | 1010.0 |
| 20260904063022 | 65 | 222 | 0.9 | 2.6 | 0.00 | 0.00 | 0.00 | 71 | 1010.0 |
| 20260904062022 | 65 | 219 | 0.9 | 0.9 | 0.00 | 0.00 | 0.00 | 71 | 1010.0 |
| 20260904061022 | 64 | 228 | 1.7 | 2.6 | 0.00 | 0.00 | 0.00 | 72 | 1010.0 |
| 20260904060024 | 64 | 234 | 0.9 | 1.7 | 0.00 | 0.00 | 0.00 | 72 | 1010.0 |
| 20260904055029 | 64 | 221 | 1.7 | 2.6 | 0.00 | 0.00 | 0.00 | 71 | 1010.0 |
| 20260904054024 | 64 | 218 | 1.7 | 2.6 | 0.00 | 0.00 | 0.00 | 71 | 1010.0 |
| 20260904053025 | 64 | 206 | 1.7 | 2.6 | 0.00 | 0.00 | 0.00 | 70 | 1010.0 |
| 20260904052025 | 64 | 230 | 0.9 | 1.7 | 0.00 | 0.00 | 0.00 | 70 | 1010.0 |
| 20260904051017 | 64 | 221 | 1.7 | 2.6 | 0.00 | 0.00 | 0.00 | 68 | 1010.0 |
| 20260904050022 | 64 | 214 | 0.9 | 0.9 | 0.00 | 0.00 | 0.00 | 68 | 1010.0 |
| 20260904045022 | 64 | 203 | 0.9 | 1.7 | 0.00 | 0.00 | 0.00 | 67 | 1010.0 |
| 20260904044015 | 64 | 217 | 1.7 | 1.7 | 0.00 | 0.00 | 0.00 | 68 | 1010.0 |
| 20260904043024 | 64 | 211 | 1.7 | 1.7 | 0.00 | 0.00 | 0.00 | 67 | 1010.0 |
| 20260904042022 | 64 | 224 | 0.9 | 1.7 | 0.00 | 0.00 | 0.00 | 67 | 1011.0 |
| 20260904041026 | 64 | 207 | 0.9 | 1.7 | 0.00 | 0.00 | 0.00 | 66 | 1011.0 |
| 20260904040020 | 64 | 203 | 0.9 | 1.7 | 0.00 | 0.00 | 0.00 | 66 | 1011.0 |
| 20260904035023 | 64 | 207 | 0.9 | 2.6 | 0.00 | 0.00 | 0.00 | 65 | 1010.0 |
| 20260904034016 | 64 | 202 | 0.9 | 1.7 | 0.00 | 0.00 | 0.00 | 65 | 1010.7 |
| 20260904033023 | 64 | 238 | 0.9 | 1.7 | 0.00 | 0.00 | 0.00 | 64 | 1011.0 |
| 20260904032022 | 64 | 227 | 0.9 | 1.7 | 0.00 | 0.00 | 0.00 | 64 | 1011.0 |
| 20260904031023 | 64 | 218 | 0.9 | 0.9 | 0.00 | 0.00 | 0.00 | 63 | 1011.0 |
| 20260904030022 | 64 | 210 | 0.9 | 0.9 | 0.00 | 0.00 | 0.00 | 62 | 1011.0 |
| 20260904025022 | 64 | 203 | 0.0 | 0.9 | 0.00 | 0.00 | 0.00 | 62 | 1011.0 |
| 20260904024018 | 64 | 214 | 0.9 | 0.9 | 0.00 | 0.00 | 0.00 | 62 | 1011.0 |
| 20260904023046 | 64 | 203 | 0.9 | 1.7 | 0.00 | 0.00 | 0.00 | 62 | 1011.0 |
| 20260904022042 | 64 | 225 | 0.0 | 0.9 | 0.00 | 0.00 | 0.00 | 61 | 1011.0 |
| 20260904021022 | 64 | 203 | 0.9 | 0.9 | 0.00 | 0.00 | 0.00 | 61 | 1011.0 |
| 20260904020023 | 64 | 230 | 0.9 | 0.9 | 0.00 | 0.00 | 0.00 | 62 | 1011.0 |
| 20260904015022 | 64 | 191 | 0.9 | 1.7 | 0.00 | 0.00 | 0.00 | 62 | 1011.0 |
| 20260904014022 | 64 | 225 | 0.9 | 1.7 | 0.00 | 0.00 | 0.00 | 62 | 1011.0 |
| 20260904013016 | 64 | 225 | 0.9 | 0.9 | 0.00 | 0.00 | 0.00 | 62 | 1011.0 |
| 20260904012022 | 64 | 231 | 0.0 | 0.9 | 0.00 | 0.00 | 0.00 | 63 | 1011.0 |
| 20260904011042 | 64 | 214 | 0.9 | 0.9 | 0.00 | 0.00 | 0.00 | 63 | 1011.0 |
| 20260904010050 | 64 | 203 | 0.0 | 0.9 | 0.00 | 0.00 | 0.00 | 63 | 1011.0 |
| 20260904005016 | 64 | 203 | 0.9 | 1.7 | 0.00 | 0.00 | 0.00 | 62 | 1011.0 |
| 20260904004022 | 64 | 248 | 0.0 | 0.9 | 0.00 | 0.00 | 0.00 | 63 | 1011.0 |
| 20260904003016 | 65 | 0.0 | 0.0 | 0.00 | 0.00 | 0.00 | 63 | 1011.0 | |
| 20260904002024 | 65 | 231 | 0.9 | 0.9 | 0.00 | 0.00 | 0.00 | 63 | 1012.0 |
| 20260904001022 | 65 | 230 | 0.9 | 1.7 | 0.00 | 0.00 | 0.00 | 64 | 1012.0 |
| 20260904000023 | 65 | 203 | 0.0 | 0.9 | 0.00 | 0.00 | 0.00 | 63 | 1012.0 |
| 20260903235024 | 65 | 248 | 0.9 | 1.7 | 0.00 | 0.00 | 0.00 | 63 | 1012.0 |
| 20260903234025 | 65 | 0.0 | 0.0 | 0.00 | 0.00 | 0.00 | 63 | 1012.0 | |
| 20260903233023 | 65 | 0.0 | 0.0 | 0.00 | 0.00 | 0.00 | 61 | 1012.0 | |
| 20260903232022 | 66 | 203 | 0.0 | 1.7 | 0.00 | 0.00 | 0.00 | 59 | 1012.0 |
| 20260903231042 | 66 | 203 | 0.9 | 0.9 | 0.00 | 0.00 | 0.00 | 58 | 1012.9 |
| 20260903230044 | 66 | 0.0 | 0.0 | 0.00 | 0.00 | 0.00 | 57 | 1013.0 | |
| 20260903225022 | 67 | 214 | 0.0 | 0.9 | 0.00 | 0.00 | 0.00 | 52 | 1012.0 |
| 20260903224025 | 67 | 234 | 0.9 | 0.9 | 0.00 | 0.00 | 0.00 | 52 | 1012.0 |
| 20260903223021 | 67 | 0.0 | 0.0 | 0.00 | 0.00 | 0.00 | 52 | 1012.0 | |
| 20260903222022 | 67 | 203 | 0.0 | 0.9 | 0.00 | 0.00 | 0.00 | 52 | 1012.0 |
| 20260903221024 | 67 | 203 | 0.0 | 0.9 | 0.00 | 0.00 | 0.00 | 51 | 1012.7 |
| 20260903220018 | 67 | 203 | 0.9 | 0.9 | 0.00 | 0.00 | 0.00 | 52 | 1013.0 |
| 20260903215022 | 67 | 0.0 | 0.0 | 0.00 | 0.00 | 0.00 | 52 | 1013.0 | |
| 20260903214024 | 67 | 203 | 0.0 | 0.9 | 0.00 | 0.00 | 0.00 | 51 | 1013.0 |
| 20260903213027 | 67 | 225 | 0.0 | 0.9 | 0.00 | 0.00 | 0.00 | 52 | 1013.0 |
| 20260903212022 | 67 | 218 | 0.9 | 0.9 | 0.00 | 0.00 | 0.00 | 52 | 1013.0 |
| 20260903211022 | 67 | 215 | 0.9 | 1.7 | 0.00 | 0.00 | 0.00 | 52 | 1013.0 |
| 20260903210019 | 67 | 203 | 0.0 | 0.9 | 0.00 | 0.00 | 0.00 | 53 | 1013.0 |
| 20260903205022 | 67 | 209 | 0.9 | 1.7 | 0.00 | 0.00 | 0.00 | 54 | 1013.0 |
| 20260903204022 | 67 | 203 | 0.9 | 0.9 | 0.00 | 0.00 | 0.00 | 55 | 1013.0 |
| 20260903203015 | 67 | 0.0 | 0.0 | 0.00 | 0.00 | 0.00 | 56 | 1013.0 | |
| 20260903202022 | 67 | 0.0 | 0.0 | 0.00 | 0.00 | 0.00 | 56 | 1013.0 | |
| 20260903201022 | 67 | 0.0 | 0.0 | 0.00 | 0.00 | 0.00 | 56 | 1013.0 | |
| 20260903200022 | 68 | 0.0 | 0.0 | 0.00 | 0.00 | 0.00 | 55 | 1013.0 | |
| 20260903195022 | 68 | 0.0 | 0.0 | 0.00 | 0.00 | 0.00 | 53 | 1013.0 | |
| 20260903194022 | 68 | 0.0 | 0.0 | 0.00 | 0.00 | 0.00 | 53 | 1013.0 | |
| 20260903193042 | 68 | 0.0 | 0.0 | 0.00 | 0.00 | 0.00 | 53 | 1013.0 | |
| 20260903192025 | 68 | 203 | 0.0 | 0.9 | 0.00 | 0.00 | 0.00 | 52 | 1014.0 |
| 20260903191021 | 68 | 0.0 | 0.0 | 0.00 | 0.00 | 0.00 | 52 | 1014.0 | |
| 20260903190054 | 68 | 203 | 0.0 | 0.9 | 0.00 | 0.00 | 0.00 | 52 | 1014.0 |
| 20260903185022 | 68 | 0.0 | 0.0 | 0.00 | 0.00 | 0.00 | 51 | 1014.0 | |
| 20260903184024 | 69 | 0.0 | 0.0 | 0.00 | 0.00 | 0.00 | 50 | 1014.0 | |
| 20260903183104 | 69 | 0.0 | 0.0 | 0.00 | 0.00 | 0.00 | 49 | 1014.0 | |
| 20260903182016 | 69 | 203 | 0.0 | 0.9 | 0.00 | 0.00 | 0.00 | 48 | 1014.0 |
| 20260903181106 | 69 | 215 | 0.9 | 1.7 | 0.00 | 0.00 | 0.00 | 47 | 1014.0 |
| 20260903180015 | 70 | 241 | 0.9 | 1.7 | 0.00 | 0.00 | 0.00 | 46 | 1014.0 |
| 20260903175022 | 70 | 203 | 0.0 | 0.9 | 0.00 | 0.00 | 0.00 | 47 | 1014.0 |
| 20260903174038 | 70 | 0.0 | 0.0 | 0.00 | 0.00 | 0.00 | 46 | 1014.0 | |
| 20260903173025 | 70 | 0.0 | 0.0 | 0.00 | 0.00 | 0.00 | 45 | 1014.0 | |
| 20260903172026 | 70 | 225 | 0.0 | 0.9 | 0.00 | 0.00 | 0.00 | 45 | 1013.0 |
| 20260903171016 | 71 | 225 | 0.0 | 0.9 | 0.00 | 0.00 | 0.00 | 44 | 1013.5 |
| 20260903170022 | 71 | 0.0 | 0.0 | 0.00 | 0.00 | 0.00 | 44 | 1014.0 | |
| 20260903165026 | 71 | 0.0 | 0.0 | 0.00 | 0.00 | 0.00 | 44 | 1014.0 | |
| 20260903164022 | 71 | 203 | 0.9 | 0.9 | 0.00 | 0.00 | 0.00 | 43 | 1014.0 |